TimeEST,TemperatureF,Dew PointF,Humidity,Sea Level PressureIn,VisibilityMPH,Wind Direction,Wind SpeedMPH,Gust SpeedMPH,PrecipitationIn,Events,Conditions,WindDirDegrees,DateUTC
12:56 AM,62.1,54.0,75,29.95,10.0,SW,11.5,-,N/A,,Overcast,230,2013-01-02 05:56:00
1:56 AM,63.0,54.0,72,29.95,10.0,SW,10.4,-,N/A,,Overcast,230,2013-01-02 06:56:00
2:56 AM,63.0,55.0,75,29.95,10.0,SW,10.4,-,N/A,,Overcast,220,2013-01-02 07:56:00
3:56 AM,63.0,55.0,75,29.94,10.0,SW,10.4,-,N/A,,Overcast,220,2013-01-02 08:56:00
4:56 AM,63.0,55.9,78,29.93,10.0,WSW,13.8,-,N/A,,Mostly Cloudy,240,2013-01-02 09:56:00
5:56 AM,61.0,55.9,83,29.92,10.0,SW,9.2,-,N/A,,Partly Cloudy,220,2013-01-02 10:56:00
6:56 AM,62.1,57.9,86,29.94,10.0,WSW,11.5,-,N/A,,Mostly Cloudy,250,2013-01-02 11:56:00
7:56 AM,63.0,59.0,87,29.96,10.0,WSW,8.1,-,N/A,,Overcast,240,2013-01-02 12:56:00
8:56 AM,63.0,61.0,93,29.98,2.5,WSW,9.2,-,0.00,Rain,Light Rain,250,2013-01-02 13:56:00
9:05 AM,62.6,60.8,94,29.98,4.0,WSW,8.1,-,0.00,Rain,Light Rain,250,2013-01-02 14:05:00
9:26 AM,62.6,60.8,94,29.99,2.5,West,5.8,-,0.00,,Overcast,270,2013-01-02 14:26:00
9:35 AM,62.6,60.8,94,29.99,3.0,WNW,3.5,-,0.00,,Overcast,290,2013-01-02 14:35:00
9:56 AM,62.1,59.0,90,30.01,8.0,NW,9.2,-,0.01,,Overcast,310,2013-01-02 14:56:00
10:18 AM,62.6,59.0,88,30.01,3.0,NNW,8.1,-,N/A,,Overcast,330,2013-01-02 15:18:00
10:56 AM,60.1,57.9,93,30.03,4.0,NNW,10.4,-,N/A,,Overcast,330,2013-01-02 15:56:00
11:14 AM,60.8,57.2,88,30.03,3.0,NNW,10.4,-,N/A,,Overcast,340,2013-01-02 16:14:00
11:28 AM,60.8,55.4,82,30.03,10.0,NNW,8.1,-,N/A,,Overcast,340,2013-01-02 16:28:00
11:56 AM,59.0,55.9,90,30.03,10.0,North,8.1,-,N/A,,Overcast,10,2013-01-02 16:56:00
12:36 PM,59.0,55.4,88,30.02,10.0,North,8.1,-,N/A,,Overcast,10,2013-01-02 17:36:00
12:56 PM,59.0,55.0,87,30.01,10.0,North,6.9,-,N/A,,Overcast,360,2013-01-02 17:56:00
1:21 PM,59.0,53.6,82,29.99,10.0,NNE,9.2,-,N/A,,Overcast,30,2013-01-02 18:21:00
1:49 PM,59.0,53.6,82,30.00,10.0,North,5.8,-,N/A,,Overcast,10,2013-01-02 18:49:00
1:56 PM,59.0,54.0,83,30.01,10.0,North,6.9,-,N/A,,Overcast,10,2013-01-02 18:56:00
2:56 PM,59.0,53.1,81,30.02,10.0,North,3.5,-,N/A,,Overcast,350,2013-01-02 19:56:00
3:56 PM,59.0,53.1,81,30.04,10.0,NNE,5.8,-,N/A,,Overcast,20,2013-01-02 20:56:00
4:56 PM,57.9,53.1,84,30.04,10.0,NNE,3.5,-,N/A,,Overcast,30,2013-01-02 21:56:00
5:56 PM,57.0,53.1,87,30.07,10.0,Calm,Calm,-,N/A,,Overcast,0,2013-01-02 22:56:00
6:56 PM,57.0,53.1,87,30.08,10.0,Calm,Calm,-,N/A,,Overcast,0,2013-01-02 23:56:00
7:41 PM,55.4,53.6,94,30.09,5.0,ESE,3.5,-,N/A,,Overcast,110,2013-01-03 00:41:00
7:56 PM,55.0,53.1,93,30.09,4.0,Calm,Calm,-,N/A,,Overcast,0,2013-01-03 00:56:00
8:03 PM,55.4,53.6,94,30.09,4.0,East,3.5,-,N/A,,Overcast,90,2013-01-03 01:03:00
8:31 PM,55.4,53.6,94,30.09,3.0,Calm,Calm,-,N/A,,Overcast,0,2013-01-03 01:31:00
8:44 PM,55.4,53.6,94,30.09,2.5,SE,3.5,-,N/A,,Overcast,130,2013-01-03 01:44:00
8:56 PM,55.0,53.1,93,30.11,2.5,Calm,Calm,-,0.00,Rain,Light Rain,0,2013-01-03 01:56:00
9:04 PM,53.6,51.8,94,30.11,4.0,East,8.1,16.1,N/A,,Overcast,100,2013-01-03 02:04:00
9:16 PM,53.6,50.0,88,30.11,10.0,East,3.5,-,0.01,,Overcast,90,2013-01-03 02:16:00
9:56 PM,54.0,50.0,86,30.13,10.0,Calm,Calm,-,0.01,,Overcast,0,2013-01-03 02:56:00
10:56 PM,53.1,48.9,86,30.13,10.0,East,3.5,-,N/A,,Overcast,90,2013-01-03 03:56:00
11:19 PM,51.8,48.2,88,30.13,10.0,North,3.5,-,N/A,,Mostly Cloudy,10,2013-01-03 04:19:00
11:56 PM,53.1,48.0,83,30.13,10.0,Calm,Calm,-,N/A,,Mostly Cloudy,0,2013-01-03 04:56:00